Location: Unnamed
(48.8836°N, 1.0859°W)
Time: 13:42:59
(UTC+02:00)

ISS - Pass Details

Date: 01 October 2021
Orbit: 417 x 423 km, 51.6° (Epoch: 16 October)

Event Time Altitude Azimuth Distance (km) Brightness Sun altitude
Rises 21:48:42 0° 289° (WNW) 2,367 1.6 -21.2°
Reaches altitude 10° 21:50:55 10° 280° (W) 1,501 0.2 -21.5°
Enters shadow 21:53:47 34° 223° (SW) 716 -2.5 -22.0°
